SCP
0 0 0 0 0 0 0 0 0 0 0 0 0 0 0 0 0 0 0 0 0 0 0 0 0 0 0 0 0 0 0 0 0 0 0 0 0 0 0 0 0 0 0 0 0 0 0 0 0
0 0 0 0 0 0 0 0 0 0 0 0 0 0 0 0 0 0 0 0 0 0 0 0 0 0 0 0 0 0 0 0 0 0 0 0 0 0 0 0 0 0 0 0 0 0 0 0 0
0 0 0 0 0 0 0 0 0 0 0 0 0 -0 -0 -0 0 0 0 0 0 0 0 0 0 0 0 0 0 0 0 0 0 0 0 0 0 0 0 0 0 0 0 0 0 0 0 0 0
0 0 0 0 0 0 0 0 0 0 0 0 0 -0 -0 0 0 0 0 0 0 0 0 0 0 0 0 0 0 0 0 0 0 0 0 0 0 0 0 0 0 0 0 0 0 0 0 0 0
0 0 0 0 0 0 0 0 0 0 0 0 0 -0 0 0 0 0 0 0 0 0 0 0 0 0 0 0 0 0 0 0 0 0 0 0 0 0 0 0 0 0 0 0 0 0 0 0 0
0 0 0 0 0 0 0 0 0 0 0 0 0 -0 -0 0 0 0 0 0 0 0 0 0 0 0 0 0 0 0 0 0 0 0 0 0 0 0 0 0 0 0 0 0 0 0 0 0 0
0 0 0 0 0 0 0 0 0 0 0 0 0 -0 0 0 0 0 0 0 0 0 0 0 0 0 0 0 0 0 0 0 0 0 0 0 0 0 0 0 0 0 0 0 0 0 0 0 0
0 0 0 0 0 0 0 0 0 0 0 0 0 0 0 0 0 0 0 0 0 0 0 0 0 0 0 0 0 0 0 0 0 0 0 0 0 0 0 0 0 0 0 0 0 0 0 0 0
0 0 0 0 0 0 0 0 0 0 0 0 0 0 0 0 0 0 0 0 0 0 0 0 0 0 0 0 0 0 0 0 0 0 0 0 0 0 0 0 0 0 0 0 0 0 0 0 0
0 0 0 0 0 0 0 0 0 0 0 0 0 0 0 0 0 0 0 0 0 0 0 0 0 0 0 0 0 -0 -0 0 0 0 0 -0 0 0 0 0 0 0 0 0 0 0 0 0 0
0 0 0 0 0 0 0 0 0 0 0 0 0 0 0 0 0 0 0 0 0 0 0 0 0 0 0 0 0 0 0 -0 0 0 0 -0 0 0 0 0 0 0 0 0 0 0 0 0 0
0 0 0 0 0 0 0 0 0 0 0 0 0 0 0 0 0 0 0 0 0 0 0 0 0 0 0 0 0 0 0 0 0 0 0 0 0 0 0 0 0 0 0 0 0 0 0 0 0
0 0 0 0 0 0 0 0 0 0 0 0 0 0 0 0 0 0 0 0 0 0 0 0 0 0 0 0 0 0 0 0 0 0 0 0 0 0 0 0 0 0 0 0 0 0 0 0 0
0 0 0 0 0 0 0 0 0 0 0 0 0 0 0 0 0 0 0 0 0 0 0 0 0 0 0 0 0 0 0 0 0 0 0 0 0 0 0 0 0 0 0 0 0 0 0 0 0
0 0 0 0 0 0 0 0 0 0 0 0 0 0 0 0 0 0 0 0 0 0 0 0 0 0 0 0 0 0 0 0 0 0 0 0 0 0 0 0 0 0 0 0 0 0 0 0 0
0 0 0 0 0 0 0 0 0 0 0 0 0 0 0 0 0 0 0 0 0 0 0 0 0 0 0 0 0 0 0 0 0 0 0 0 0 0 0 0 0 0 0 0 0 0 0 0 0
0 0 0 0 0 0 0 0 0 0 0 0 0 0 0 0 0 0 0 0 0 0 0 0 0 0 0 0 0 0 0 0 0 0 0 0 0 0 0 0 0 0 0 0 0 0 0 0 0
0 0 0 0 0 0 0 0 0 0 0 0 0 0 0 0 0 0 0 0 0 0 0 0 0 0 0 0 0 0 0 0 0 0 0 0 0 0 0 0 0 0 0 0 0 0 0 0 0
0 0 0 0 0 0 0 0 0 0 0 0 0 0 0 0 0 0 0 0 0 0 0 0 0 0 0 0 0 0 0 0 0 0 0 0 0 0 0 0 0 0 0 0 0 0 0 0 0
0 0 0 0 0 0 0 0 0 0 0 0 0 0 0 0 0 0 0 0 0 0 0 0 0 0 0 0 0 0 0 0 0 0 0 0 0 0 0 0 0 0 0 0 0 0 0 0 0
0 0 0 0 0 0 0 0 0 0 0 0 0 0 0 0 0 0 0 0 0 0 0 0 0 0 0 0 0 0 0 0 0 0 0 0 0 0 0 0 0 0 0 0 0 0 0 0 0
0 0 0 0 0 0 0 0 0 0 0 0 0 0 0 0 0 0 0 0 0 0 0 0 0 0 0 0 0 0 0 0 0 0 0 0 0 0 0 0 0 0 0 0 0 0 0 0 0
0 0 0 0 0 0 0 0 0 0 0 0 0 0 0 0 0 0 0 0 0 0 0 0 0 0 0 0 0 0 0 0 0 0 0 0 0 0 0 0 0 0 0 0 0 0 0 0 0
0 0 0 0 0 0 0 0 0 0 0 0 0 0 0 0 0 0 0 0 0 0 0 0 0 0 0 0 0 0 0 0 0 0 0 0 0 0 0 0 0 0 0 0 0 0 0 0 0
0 0 0 0 0 0 0 0 0 0 0 0 0 0 0 0 0 0 0 0 0 0 0 0 0 0 0 0 0 0 0 0 0 0 0 0 0 0 0 0 0 0 0 0 0 0 0 0 0
0 0 0 0 0 0 0 0 0 0 0 0 0 0 0 0 0 0 0 0 0 0 0 0 0 0 0 0 0 0 0 0 0 0 0 0 0 0 0 0 0 0 0 0 0 0 0 0 0
0 0 0 0 0 0 0 0 0 0 0 0 0 0 0 0 0 0 0 0 0 0 0 0 0 0 0 0 0 0 0 0 0 0 0 0 0 0 0 0 0 0 0 0 0 0 0 0 0
0 0 0 0 0 0 0 0 0 0 0 0 0 0 0 0 0 0 0 0 0 0 0 0 0 0 0 0 0 0 0 0 0 0 0 0 0 0 0 0 0 0 0 0 0 0 0 0 0
0 0 0 0 0 0 0 0 0 0 0 0 0 0 0 0 0 0 0 0 0 0 0 0 0 0 0 0 0 0 0 0 0 0 0 0 0 0 0 0 0 0 0 0 0 0 0 0 0
0 0 0 0 0 0 0 0 0 0 0 0 0 0 0 0 0 0 0 0 0 0 0 0 0 0 0 0 0 0 0 0 0 0 0 0 0 0 0 0 0 0 0 0 0 0 0 0 0
Wind_Speed
13 11 6 3 3 4 1 5 5 6 5 7 6 5 7 11 7 9 6 11 15 14 12 10 10 11 11 12 12 12 13 14 13 13 13 14 15 15 16 16 16 16 16 17 17 18 18 18 17
10 9 4 3 4 4 3 6 5 6 9 7 4 1 4 9 8 9 7 12 15 14 11 11 10 11 11 11 12 12 13 13 13 13 13 14 14 15 15 16 15 16 16 16 17 17 17 17 16
9 7 3 3 4 4 4 7 9 10 6 4 4 3 6 7 9 7 9 13 13 12 12 12 11 11 11 11 12 12 13 13 13 13 13 13 14 14 15 15 15 15 15 16 16 16 16 16 15
5 3 3 4 6 2 6 7 11 8 4 1 3 7 6 4 5 10 12 12 12 13 12 11 11 11 11 11 12 12 13 13 13 13 13 13 14 14 14 14 15 15 15 15 15 15 15 15 14
3 3 4 5 6 3 5 5 9 8 7 4 1 8 7 4 10 14 11 12 11 12 11 10 10 10 10 11 11 12 12 13 13 12 12 12 13 13 13 14 14 14 14 14 14 14 14 13 13
3 3 4 6 5 4 4 3 5 6 6 5 2 6 7 6 9 10 10 10 11 12 11 10 10 10 9 9 10 11 12 12 12 12 12 12 12 12 12 13 13 13 13 13 13 13 13 12 11
4 4 6 7 4 4 5 3 4 5 6 6 2 6 7 7 9 9 9 10 11 12 11 8 8 8 9 9 9 10 11 11 11 11 11 11 11 11 11 11 12 12 12 12 12 12 12 11 10
3 4 8 7 4 4 7 4 2 3 5 5 2 3 8 10 10 9 8 9 11 9 9 9 8 7 7 7 9 10 11 10 11 11 10 10 10 9 9 9 10 11 11 11 11 10 10 9 8
3 4 6 6 4 5 8 5 3 4 7 4 5 6 10 16 12 9 7 7 8 8 8 8 8 8 7 7 9 9 9 10 10 8 9 8 5 5 5 9 9 10 10 10 9 8 7 6 5
4 5 8 4 1 6 8 7 7 4 6 5 6 6 12 13 12 10 9 9 9 8 7 7 7 7 7 7 6 5 5 6 5 5 5 3 3 5 7 8 9 9 8 8 6 4 2 2 2
5 6 6 1 4 6 8 7 8 7 7 8 11 12 12 11 11 11 10 9 9 8 7 6 6 6 6 5 5 3 3 4 4 6 4 3 4 4 5 3 4 4 5 3 3 2 1 1 1
6 6 5 1 3 3 7 6 6 4 4 4 10 16 13 12 12 12 11 10 9 9 8 6 6 6 6 5 4 4 3 3 3 5 5 3 2 3 3 3 4 3 2 2 2 1 1 1 1
8 4 1 4 2 1 5 6 5 4 7 7 9 14 12 12 11 10 10 9 9 10 10 8 7 6 6 5 4 4 4 4 4 4 4 4 3 3 3 2 2 3 2 3 2 1 1 0 1
6 5 5 4 3 1 4 5 2 5 9 8 7 10 10 11 11 10 10 10 10 10 11 10 8 7 6 5 4 4 4 4 4 4 5 5 3 3 3 3 2 2 2 2 2 1 2 2 1
3 5 5 5 5 3 4 3 5 5 8 8 7 8 9 10 11 10 10 10 10 10 10 11 10 8 7 6 5 3 4 4 4 4 5 5 4 4 4 3 3 2 2 2 1 1 1 1 2
4 6 6 5 6 2 4 5 7 8 8 7 8 8 8 9 10 10 10 9 9 10 10 11 9 10 9 7 5 3 3 4 4 4 4 5 5 4 4 3 3 3 3 2 2 2 2 2 3
7 9 8 5 5 5 5 4 4 6 6 6 7 7 8 8 8 9 9 9 9 10 10 11 11 11 10 8 6 5 4 3 3 4 4 5 6 5 4 3 3 4 3 3 3 2 2 3 3
10 9 9 8 7 6 5 5 5 5 6 6 6 6 7 8 9 8 8 8 8 9 10 11 11 11 10 8 6 5 5 4 4 4 4 6 5 6 5 4 4 4 3 3 4 4 3 3 3
8 10 10 5 4 6 7 7 7 8 7 7 7 6 7 8 7 7 8 8 8 8 8 11 12 12 10 8 8 7 6 5 4 4 6 6 6 6 5 4 4 5 5 5 5 4 4 4 2
7 9 8 6 2 2 4 8 7 7 8 8 8 8 8 8 7 6 6 6 7 7 8 8 10 12 11 9 8 6 6 5 6 5 6 7 7 7 6 6 5 5 5 5 5 4 3 3 3
8 7 7 7 3 0 1 6 9 10 9 7 7 6 5 6 8 7 6 6 6 6 7 7 9 10 11 10 6 5 4 4 4 5 5 7 7 7 7 7 6 5 5 5 6 6 6 4 3
7 2 4 9 6 4 6 4 7 10 10 9 7 6 5 4 4 5 5 4 4 4 4 5 6 7 9 10 8 8 6 6 6 4 4 5 7 7 7 6 6 6 5 6 6 6 5 5 4
3 5 6 6 4 2 4 4 7 4 6 8 8 7 5 4 4 5 4 3 2 1 2 2 3 4 6 8 8 8 6 4 3 3 4 4 4 5 5 5 5 5 5 5 5 5 6 5 5
8 7 6 2 2 4 7 6 6 5 7 6 6 6 6 6 5 5 5 4 3 2 1 2 3 3 3 5 6 6 6 5 3 3 2 2 2 2 2 2 2 3 3 4 4 4 5 5 6
7 8 4 3 3 6 2 6 8 3 3 5 8 7 7 6 5 5 5 4 3 2 2 3 4 4 4 5 5 4 4 4 3 2 2 2 2 2 2 1 1 0 1 2 2 3 4 5 5
9 9 9 8 7 3 2 7 8 2 4 5 6 7 7 6 5 5 5 5 4 4 4 5 5 6 6 6 5 5 5 4 3 4 4 4 3 3 3 3 3 3 3 2 2 2 2 3 4
8 7 4 6 3 3 6 7 5 3 3 4 5 7 7 7 6 6 6 6 5 5 5 6 7 7 7 7 7 7 7 6 6 6 5 4 4 3 4 4 4 4 4 4 3 2 3 3 3
3 7 5 6 8 5 5 6 6 7 9 8 9 8 7 7 7 6 6 6 6 6 6 7 8 8 8 8 7 7 7 7 7 6 6 5 5 5 5 5 4 4 5 5 4 3 4 4 4
5 7 7 6 6 7 5 8 4 7 9 10 10 9 9 8 7 6 6 6 6 6 7 7 7 8 8 8 8 8 7 7 7 7 6 5 5 5 5 5 5 5 5 5 4 4 5 5 5
4 7 8 8 7 6 4 8 1 2 4 8 9 9 9 8 8 7 7 6 6 6 6 7 7 8 7 7 8 8 8 7 7 7 6 6 5 5 5 5 5 5 5 5 5 5 5 6 6
Wind_Direction
303 286 271 268 253 246 204 91 85 87 81 64 50 18 40 48 46 104 130 117 114 115 121 120 113 111 108 107 106 103 100 97 95 92 90 88 86 84 82 80 78 77 76 75 74 72 72 71 69
301 300 280 254 258 249 140 116 117 95 87 89 83 25 84 79 80 107 118 116 116 121 128 120 116 113 108 107 108 106 103 100 98 95 92 89 87 85 83 81 80 78 77 77 76 74 73 71 69
284 272 269 258 256 277 102 118 111 91 105 132 121 35 45 83 111 118 122 124 119 118 114 118 118 115 110 108 110 108 106 102 102 97 93 90 87 85 84 82 81 79 78 77 77 76 73 70 67
286 259 243 255 259 344 71 109 111 114 111 80 124 104 77 42 97 120 129 125 119 114 115 120 120 118 113 110 110 110 109 105 104 99 93 91 90 87 86 85 82 80 78 78 77 76 73 70 64
248 258 243 250 258 80 70 91 122 139 153 156 201 101 92 74 98 122 134 124 119 116 118 124 118 117 114 113 113 113 112 109 105 101 96 94 92 90 89 87 85 82 80 80 79 77 74 69 63
262 247 238 234 226 119 104 120 149 155 129 120 158 104 100 121 124 137 132 125 121 118 120 123 114 114 111 109 110 112 113 112 108 104 101 98 96 92 91 89 88 86 83 82 81 79 76 70 62
254 253 250 241 202 140 125 150 176 152 132 141 162 103 118 141 136 142 135 131 122 121 125 130 129 119 108 104 106 110 109 109 108 104 99 92 89 88 86 87 89 88 85 84 81 80 76 71 62
277 261 253 250 209 144 130 158 163 143 111 80 18 106 138 142 140 143 141 131 125 129 135 141 144 137 130 114 107 110 109 106 105 104 103 99 96 94 92 86 88 90 88 86 82 80 78 74 65
283 251 243 236 211 132 138 149 101 44 96 95 59 42 116 133 141 144 142 132 131 139 140 145 148 146 143 136 125 118 114 114 115 113 126 137 135 122 97 89 91 92 91 90 88 86 87 87 78
220 233 242 247 217 133 152 155 138 150 140 134 107 89 117 137 150 157 160 156 150 152 150 148 150 146 145 140 143 145 139 147 151 143 172 194 111 101 103 93 96 98 99 100 98 101 136 182 158
218 231 246 309 38 112 153 159 154 173 178 175 161 150 146 154 163 169 173 167 162 160 154 155 153 146 141 136 158 153 148 168 159 157 180 128 106 119 123 122 125 127 143 129 136 183 247 47 60
233 235 248 135 48 124 155 151 163 201 93 88 144 150 155 168 177 179 180 175 167 167 164 164 157 152 148 151 157 147 145 158 153 152 160 141 141 152 152 156 164 163 166 139 167 185 66 40 25
236 219 99 85 113 140 144 153 171 177 115 84 109 141 162 176 184 185 182 177 171 173 168 171 166 163 159 159 161 157 155 162 159 150 166 164 155 165 152 150 148 165 150 158 189 179 157 217 271
217 180 142 137 138 127 156 148 158 195 134 125 135 156 172 181 186 186 185 182 179 176 169 169 172 172 166 168 171 163 163 162 157 156 174 184 168 163 157 156 160 173 156 163 173 197 185 220 227
213 154 149 164 161 164 162 161 213 163 140 154 170 178 182 185 186 190 188 185 180 176 170 169 174 177 174 178 184 173 169 161 162 164 178 181 181 169 167 168 173 186 167 157 170 240 226 247 240
202 182 175 175 161 145 174 212 203 152 156 181 189 190 186 190 188 190 186 184 179 173 174 171 170 178 180 181 186 187 184 169 170 167 175 182 191 186 172 173 182 178 162 167 191 211 219 239 239
199 202 187 153 183 156 198 220 139 138 165 202 204 194 181 187 194 190 186 179 179 175 173 171 170 179 184 182 184 189 189 186 178 173 176 186 192 195 181 182 184 170 167 182 199 212 211 235 240
191 198 194 172 184 166 203 223 165 173 183 212 219 205 189 188 195 191 184 179 177 176 172 172 173 180 181 180 184 187 192 194 190 189 190 188 190 193 189 188 187 172 178 198 204 216 221 234 247
203 205 206 165 137 174 208 234 227 187 187 211 223 213 195 197 191 176 172 174 172 176 175 175 176 180 180 183 186 190 195 193 196 199 197 195 192 192 192 193 192 186 198 208 206 207 223 235 210
243 222 204 101 99 181 229 245 244 228 207 203 209 214 202 189 170 155 155 162 174 183 186 184 181 180 183 189 189 191 189 192 197 197 202 201 198 195 195 198 200 199 205 213 211 202 206 227 180
233 228 196 132 110 337 325 277 235 232 218 209 205 211 207 180 167 162 164 172 179 192 195 194 190 184 183 181 179 177 187 191 192 198 201 204 201 198 196 202 204 203 203 216 215 205 206 227 212
216 239 127 125 139 190 183 258 243 205 200 202 205 207 208 168 147 145 153 165 174 191 194 196 195 188 182 177 179 180 189 198 198 192 194 195 197 198 199 201 204 207 207 217 220 211 210 217 230
151 106 109 139 165 153 189 234 275 176 186 205 197 186 171 141 131 121 109 109 98 120 175 191 192 186 177 173 175 183 196 201 193 182 179 184 186 188 193 198 204 212 215 220 222 217 215 216 227
123 90 76 92 150 234 204 198 261 211 196 188 169 150 133 116 106 101 92 85 74 71 113 158 167 164 153 156 163 176 187 186 180 176 157 145 128 136 169 193 202 216 222 225 228 227 226 227 233
156 132 120 163 205 234 208 199 240 222 125 138 144 134 124 125 125 123 120 111 100 100 103 109 117 113 114 123 137 153 166 166 165 156 133 110 86 70 51 45 24 300 278 265 250 244 245 238 240
194 168 156 171 194 215 321 230 247 170 98 89 110 124 126 128 119 113 110 106 99 96 101 102 102 96 92 95 98 102 108 105 94 89 90 84 76 60 39 36 28 19 7 353 333 295 281 273 263
171 209 157 127 114 158 226 251 260 173 161 161 154 147 148 139 126 117 106 101 97 88 88 97 99 94 92 92 90 86 87 89 86 79 75 72 64 52 42 36 27 17 9 359 349 335 322 312 292
192 152 124 137 153 205 229 222 228 207 208 191 179 170 154 137 127 118 107 98 91 86 82 82 87 88 85 84 84 85 79 79 80 77 71 66 57 51 46 38 31 24 17 8 0 345 340 334 321
165 160 170 158 171 171 212 246 224 194 187 180 176 163 152 145 136 125 114 106 101 93 88 87 86 86 84 83 83 81 75 74 73 71 65 60 56 49 43 35 32 26 16 8 2 354 350 339 328
213 183 172 165 200 188 186 255 315 86 130 150 153 149 143 137 131 126 123 117 109 102 95 90 87 87 85 85 84 81 75 72 70 65 56 51 50 45 38 32 32 25 16 9 5 352 346 336 327